Tracking 22779 objects as of 12-Apr-2021
HD Live streaming from Space Station
objects crossing your sky now

STARLINK-1694

Track STARLINK-1694 now!
10-day predictions
STARLINK-1694 is classified as:


NORAD ID: 46544
Int'l Code: 2020-070N
Perigee: 553.0 km
Apogee: 555.8 km
Inclination: 53.0 °
Period: 95.6 minutes
Semi major axis: 6925 km
RCS: Unknown
Launch date: October 6, 2020
Source: United States (US)
Launch site: AIR FORCE EASTERN TEST RANGE (AFETR)
aabbcc
Your satellite tracking list
Your tracking list is empty




NASA's NSSDC Master Catalog

Two Line Element Set (TLE):
1 46544U 20070N   21101.87192474 -.00001143  00000-0 -57819-4 0  9994
2 46544  53.0397 289.9612 0002039  95.6244 264.4977 15.06388776 29509
Source of the keplerian elements: AFSPC